SL-14 DEB

Satellite information

Favourite Embed

Satellite Type and Status

DEBRISIN ORBIT

Key statistics

Satellite SL-14 DEB at a glance.

Uptime

12338

Days in orbit

Revolutions

≈ 12.4

Per day

Orbit

LEO

Low Earth Orbit

Inclination

82.7

Latest

Satellite identification and parameters

Extended collection of information and parameters for SL-14 DEB.

Object identification

Identified? True

Debris? True

Object name: SL-14 DEB

International designator: 1991-068AX

Object number (NORAD): 35530

Object ID (CCSDS): 35530

Country: COMMONWEALTH OF INDEPENDENT STATES (CIS)

Current information (Y/N): Y

RCS size: SMALL

Orbital parameters

Period: 115.708 minutes

Inclination: 82.7063 deg

SMA: 7865.658 km

Apoapsis: 1505.818 km

Periapsis: 1469.229 km

RAAN: 166.7523 deg

Eccentricy: 0.0023259

Argument of periapsis: 277.8241 deg

Mean anomaly: 143.764 deg

Mean motion: 12.44514996 rev/day

Mean motion (dot): 0.00000086 rev/day2

B* drag term: 0.00053592 1/REarth

Two-line elements (TLE)

Creation date: June 24, 2025, 5:32 p.m.

Reference frame: TEME

Reference center: EARTH

Epoch: June 24, 2025, 6:51 a.m. UTC

TLE line 0: 0 SL-14 DEB

TLE line 1: 1 35530U 91068AX 25175.28567455 .00000086 00000-0 53592-3 0 9993

TLE line 2: 2 35530 82.7063 166.7523 0023259 277.8241 143.7640 12.44514996534615

Live tracking on map

Real-time ground track for satellite SL-14 DEB.

In-orbit conjunctions

A list of the most updated potential collisions computed for object SL-14 DEB.

Target Orbit TCA Probability of collision Miss distance Type
COSMOS 733 LEO 2025-01-13 10:17:49 0.0007863416 395.0 (m) PAYLOAD

Associated space launch

Second generation store-dump military communications satellite

SL-14 DEB was lifted into orbit during the mission ‘Tsiklon-3 | Strela-3 67 to 72’, on board a Tsiklon-3 space rocket.

The launch took place on Sept. 28, 1991, 7:05 a.m. from 32/2.

For more information about the launch, click the button.

Launch to space Tsiklon-3 | Strela-3 67 to 72
Tsiklon-3 | Strela-3 67 to 72

Agency: N/A

Status: Launch Successful

Launch date: Sept. 28, 1991, 7:05 a.m. UTC

Rocket: Tsiklon-3

Launch pad: 32/2

Location: Plesetsk Cosmodrome, Russian Federation

...

Latest news about this satellite

There are no fresh news available about this satellite. Check back as we update our databases every day.


Newsletter sign-up

Weekly statistics, charts and insights to help you stay on top of the space industry.